Location: Banff
(51.1667°N, 115.5667°W)
Time: 10:48:56
(UTC+00:00)

A-11 Canister half - Pass Details

Date: 01 December 2020
Orbit: 1524 x 1684 km, 47.3° (Epoch: 20 January)

Event Time Altitude Azimuth Distance (km) Brightness Sun altitude
Rises 13:59:28 0° 240° (WSW) 4,933 11.3 -12.7°
Reaches altitude 10° 14:02:41 10° 238° (WSW) 3,944 10.8 -12.2°
Maximum altitude 14:12:35 62° 161° (SSE) 1,844 9.6 -10.8°
Drops below altitude 10° 14:22:18 10° 84° (E) 3,869 12.2 -9.4°
Sets 14:25:25 0° 81° (E) 4,836 12.7 -8.9°
